Location: *
(38.4303°S, 157.0822°W)
Time: 13:37:26
(UTC+00:00)

Cosmos 2333 Rocket - Pass Details

Date: 21 May 2024
Orbit: 839 x 863 km, 70.8° (Epoch: 14 June)

Event Time Altitude Azimuth Distance (km) Brightness Sun altitude
Rises 15:14:01 0° 354° (N) 3,430 5.4 -26.1°
Reaches altitude 10° 15:16:31 10° 359° (N) 2,502 4.7 -25.6°
Maximum altitude 15:22:04 50° 73° (ENE) 1,092 3.1 -24.6°
Drops below altitude 10° 15:27:40 10° 147° (SSE) 2,526 5.0 -23.5°
Sets 15:30:12 0° 151° (SSE) 3,467 5.7 -23.0°
